sat.trackr.live / text

‹ back to catalog

KUIPER-00071

NORAD 64818 · 2025-151C

PAYLOAD ACTIVE UNKNOWN

§ Identity

Operator
Country
US
Launch date
2025-07-16
Launch site
AFETR
Launch vehicle
Mass (kg)
RCS (m²)

External: N2YO · Heavens-Above · Gunter

§ Orbital elements

Epoch: 2026-09-21T21:32:48.293088Z

Period
97.30 min
Inclination
51.9024°
Eccentricity
0.0000957
Mean motion
14.79931984 rev/d
Perigee alt
628.9 km
Apogee alt
630.2 km
Semi-major
7,007.7 km
B*
6.1910e-5
RAAN
155.4672°
Arg perigee
101.4276°
Mean anomaly
258.6794°
Rev number
6,432

§ Raw data

KUIPER-000711 64818U 25151C   26264.89778117  .00000251  00000+0  61910-4 0  99972 64818  51.9024 155.4672 0000957 101.4276 258.6794 14.79931984 64323

JSON: /api/v1/satellites/64818 · /tle

For live sub-satellite position, see the globe view (requires WebGL).

§ Visibility from observer

Set your observer location to see the next 7 days of passes ≥ 10°. The values pass through the URL so the page stays shareable.

No JS? Fill the form by hand. The geolocation button needs JavaScript.